"startDT [UTC]","vpos","CH4 [ppm]","stdev(CH4) [ppm]","CO2 [ppm]","stdev(CO2) [ppm]","H2O [ppm]","stdev(H2O)","p_LGR [torr]","T_LGR [C]","mt1_LGR [us]","mt2_LGR [us]","T_ECpre [C]","T_EC1 [C]","T_EC2 [C]","p_inlet [hPa]","p_in [hPa]","p_out [hPa]","T_inlet [C]","RH_inlet [%]","dwpt_inlet [C]","T_vent [C]","RH_vent [%]","dwpt_vent [C]","flow_vent [l min-1]","flow_inlet [l min-1]","dwpt_sample [C]","T_room [C]"
2012-04-12 00:00:00,0.0,1.9590,0.0012,403.26,0.42,100.6,40.5,138.11,28.22,24.61,36.34,0.04,-272.73,-272.74,-51,568,-917,22.6,3.3,-23.7,22.7,3.4,-23.4,5.73,2.38,-26.7,27.6
2012-04-12 00:01:00,0.0,1.9606,0.0010,403.40,0.42,112.0,38.5,138.11,28.23,24.61,36.35,0.04,-272.73,-272.74,-50,565,-917,22.7,3.3,-23.8,22.8,3.4,-23.4,5.73,2.34,-26.7,27.6
2012-04-12 00:02:00,0.0,1.9604,0.0011,403.41,0.43,113.6,41.7,138.11,28.25,24.62,36.35,0.04,-272.73,-272.74,-50,565,-917,22.7,3.2,-23.9,22.8,3.3,-23.4,5.73,2.29,-26.6,27.6
2012-04-12 00:03:00,0.0,1.9598,0.0012,403.38,0.50,114.3,39.3,138.11,28.26,24.61,36.35,0.04,-272.74,-272.73,-51,566,-917,22.7,3.2,-23.9,22.8,3.3,-23.5,5.73,2.29,-26.6,27.6
2012-04-12 00:04:00,0.0,1.9590,0.0009,403.47,0.42,131.3,31.1,138.11,28.27,24.61,36.35,0.04,-272.73,-272.74,-50,566,-917,22.7,3.2,-24.0,22.8,3.3,-23.6,5.73,2.34,-26.5,27.6
2012-04-12 00:05:00,0.0,1.9600,0.0009,403.43,0.43,123.7,36.5,138.11,28.28,24.61,36.35,0.04,-272.74,-272.74,-50,566,-917,22.7,3.2,-24.1,22.9,3.3,-23.7,5.73,2.38,-26.5,27.7
2012-04-12 00:06:00,0.0,1.9596,0.0010,403.42,0.44,128.8,41.6,138.11,28.29,24.61,36.34,0.04,-272.74,-272.74,-50,566,-917,22.8,3.2,-24.0,22.9,3.3,-23.6,5.73,2.36,-26.4,27.7
2012-04-12 00:07:00,0.0,1.9593,0.0013,403.52,0.40,126.9,37.2,138.11,28.30,24.62,36.34,0.04,-272.74,-272.74,-50,566,-917,22.8,3.2,-24.1,22.9,3.3,-23.6,5.73,2.31,-26.4,27.7
2012-04-12 00:08:00,0.0,1.9599,0.0010,403.48,0.46,133.3,35.6,138.11,28.31,24.61,36.35,0.04,-272.74,-272.74,-50,566,-917,22.8,3.1,-24.1,22.9,3.2,-23.7,5.73,2.29,-26.3,27.8
2012-04-12 00:09:00,0.0,1.9602,0.0009,403.44,0.47,123.0,35.9,138.10,28.33,24.61,36.35,0.04,-272.74,-272.73,-50,566,-917,22.9,3.1,-24.1,23.0,3.2,-23.7,5.73,2.31,-26.3,27.9
2012-04-12 00:10:00,0.0,1.9599,0.0010,403.45,0.44,131.0,36.5,138.10,28.34,24.62,36.35,0.04,-272.73,-272.74,-50,567,-917,22.9,3.2,-23.9,23.0,3.3,-23.5,5.73,2.36,-26.2,27.9
2012-04-12 00:11:00,0.0,1.9607,0.0010,403.60,0.49,135.7,39.5,138.10,28.35,24.61,36.35,0.04,-272.74,-272.73,-50,567,-918,22.9,3.2,-23.8,23.0,3.3,-23.4,5.73,2.38,-26.2,28.0
2012-04-12 00:12:00,0.0,1.9600,0.0010,403.36,0.46,136.7,35.0,138.10,28.36,24.61,36.35,0.04,-272.74,-272.74,-50,567,-917,22.9,3.2,-23.7,23.1,3.3,-23.2,5.73,2.33,-26.2,27.4
2012-04-12 00:13:00,0.0,1.9596,0.0009,403.39,0.48,139.9,37.2,138.11,28.37,24.61,36.35,0.04,-272.73,-272.74,-50,567,-918,22.9,3.3,-23.6,23.0,3.4,-23.2,5.73,2.27,-26.3,27.0
2012-04-12 00:14:00,0.0,1.9598,0.0011,403.39,0.38,128.3,31.3,138.11,28.37,24.62,36.35,0.04,-272.74,-272.73,-50,567,-918,22.9,3.3,-23.6,23.0,3.4,-23.2,5.73,2.39,-26.4,26.7
2012-04-12 00:15:00,0.0,1.9593,0.0009,403.26,0.34,113.8,34.9,138.12,28.37,24.61,36.35,0.04,-272.74,-272.74,-51,568,-918,22.9,3.3,-23.6,22.9,3.4,-23.2,5.73,2.36,-26.6,26.3
2012-04-12 00:16:00,0.0,1.9585,0.0011,403.44,0.41,101.5,39.2,138.12,28.36,24.62,36.34,0.04,-272.74,-272.74,-51,567,-918,22.9,3.3,-23.5,22.9,3.4,-23.2,5.73,2.24,-26.7,26.0
2012-04-12 00:17:00,0.0,1.9574,0.0010,403.23,0.45,89.4,27.0,138.13,28.34,24.62,36.34,0.04,-272.74,-272.74,-51,568,-918,22.8,3.3,-23.5,22.8,3.4,-23.1,5.73,2.42,-26.9,26.0
2012-04-12 00:18:00,0.0,1.9572,0.0012,402.98,0.42,71.9,35.7,138.13,28.33,24.62,36.35,0.04,-272.73,-272.74,-51,567,-918,22.8,3.3,-23.5,22.8,3.4,-23.1,5.73,2.39,-27.0,25.7
2012-04-12 00:19:00,0.0,1.9573,0.0013,403.12,0.44,60.4,32.4,138.14,28.31,24.61,36.34,0.04,-272.74,-272.74,-51,567,-918,22.7,3.3,-23.5,22.7,3.4,-23.1,5.73,2.24,-27.2,25.6
2012-04-12 00:20:00,0.0,1.9571,0.0012,402.97,0.35,59.1,39.1,138.14,28.29,24.61,36.34,0.04,-272.73,-272.73,-51,567,-918,22.7,3.4,-23.4,22.7,3.5,-23.1,5.73,2.34,-27.3,25.4
2012-04-12 00:21:00,0.0,1.9567,0.0010,402.96,0.41,37.6,34.7,138.15,28.27,24.62,36.33,0.04,-272.74,-272.73,-51,566,-918,22.6,3.4,-23.3,22.6,3.5,-23.0,5.73,2.44,-27.4,25.5
2012-04-12 00:22:00,0.0,1.9570,0.0010,402.94,0.37,39.2,34.8,138.15,28.24,24.61,36.33,0.04,-272.74,-272.74,-51,566,-918,22.6,3.4,-23.3,22.5,3.5,-23.0,5.73,2.24,-27.4,26.0
2012-04-12 00:23:00,0.0,1.9571,0.0012,402.96,0.37,41.1,28.3,138.14,28.23,24.61,36.33,0.04,-272.74,-272.74,-51,566,-918,22.6,3.4,-23.3,22.6,3.5,-22.9,5.73,2.44,-27.4,26.4
2012-04-12 00:24:00,0.0,1.9568,0.0010,402.81,0.43,50.7,33.1,138.14,28.21,24.62,36.33,0.04,-272.73,-272.74,-51,566,-918,22.6,3.4,-23.2,22.6,3.5,-22.9,5.73,2.26,-27.3,26.7
2012-04-12 00:25:00,0.0,1.9567,0.0012,402.93,0.45,56.3,38.4,138.13,28.20,24.62,36.34,0.04,-272.73,-272.74,-51,566,-917,22.6,3.4,-23.2,22.6,3.6,-22.8,5.73,2.32,-27.2,26.9
2012-04-12 00:26:00,0.0,1.9568,0.0010,402.86,0.43,66.6,39.6,138.13,28.20,24.61,36.34,0.04,-272.74,-272.74,-51,565,-917,22.6,3.4,-23.2,22.7,3.6,-22.8,5.73,2.40,-27.1,27.0
2012-04-12 00:27:00,0.0,1.9562,0.0012,402.91,0.48,71.7,43.0,138.13,28.20,24.61,36.34,0.04,-272.74,-272.74,-51,566,-917,22.6,3.5,-23.1,22.7,3.6,-22.8,5.73,2.36,-27.0,27.2
2012-04-12 00:28:00,0.0,1.9563,0.0012,402.82,0.44,75.3,33.6,138.13,28.20,24.61,36.35,0.04,-272.73,-272.73,-51,566,-917,22.7,3.5,-23.1,22.7,3.6,-22.7,5.73,2.29,-27.0,27.3
2012-04-12 00:29:00,0.0,1.9562,0.0011,402.97,0.39,92.5,42.3,138.12,28.21,24.61,36.34,0.04,-272.74,-272.74,-50,566,-917,22.6,3.5,-23.1,22.7,3.6,-22.7,5.73,2.29,-26.9,27.3
2012-04-12 00:30:00,0.0,1.9566,0.0009,402.97,0.42,96.2,31.6,138.12,28.21,24.61,36.34,0.04,-272.74,-272.74,-51,566,-918,22.7,3.5,-23.0,22.7,3.6,-22.7,5.73,2.35,-26.8,27.4
2012-04-12 00:31:00,0.0,1.9572,0.0010,403.03,0.42,95.8,42.3,138.12,28.22,24.61,36.35,0.04,-272.73,-272.75,-51,566,-917,22.7,3.5,-22.9,22.8,3.6,-22.5,5.73,2.39,-26.7,27.5
2012-04-12 00:32:00,0.0,1.9580,0.0010,403.04,0.47,102.9,42.3,138.12,28.23,24.61,36.35,0.04,-272.74,-272.74,-51,565,-917,22.7,3.5,-22.9,22.8,3.6,-22.5,5.73,2.37,-26.6,27.6
2012-04-12 00:33:00,0.0,1.9619,0.0035,403.29,0.43,100.5,42.3,138.12,28.24,24.61,36.35,0.04,-272.74,-272.73,-50,566,-917,22.7,3.5,-22.9,22.8,3.6,-22.5,5.73,2.31,-26.6,27.6
2012-04-12 00:34:00,0.0,1.9658,0.0010,403.47,0.48,112.5,41.7,138.11,28.25,24.61,36.35,0.04,-272.73,-272.73,-51,566,-917,22.7,3.5,-23.0,22.8,3.6,-22.6,5.73,2.29,-26.5,27.6
2012-04-12 00:35:00,0.0,1.9656,0.0009,403.51,0.47,126.0,40.8,138.11,28.26,24.61,36.34,0.04,-272.74,-272.74,-51,566,-917,22.7,3.4,-23.1,22.9,3.5,-22.7,5.73,2.31,-26.5,27.7
2012-04-12 00:36:00,0.0,1.9661,0.0011,403.58,0.53,126.8,37.2,138.11,28.27,24.61,36.34,0.04,-272.73,-272.74,-51,566,-917,22.8,3.4,-23.3,22.9,3.5,-22.9,5.73,2.36,-26.4,27.7
2012-04-12 00:37:00,0.0,1.9654,0.0012,403.36,0.46,126.8,36.4,138.11,28.29,24.61,36.35,0.04,-272.74,-272.74,-50,566,-917,22.8,3.3,-23.5,22.9,3.4,-23.0,5.73,2.38,-26.3,27.8
2012-04-12 00:38:00,0.0,1.9657,0.0012,403.57,0.43,129.0,42.0,138.11,28.30,24.61,36.35,0.04,-272.73,-272.73,-50,566,-917,22.9,3.3,-23.6,22.9,3.4,-23.2,5.73,2.35,-26.3,27.8
2012-04-12 00:39:00,0.0,1.9623,0.0023,403.27,0.42,137.8,37.6,138.11,28.31,24.61,36.35,0.04,-272.74,-272.74,-51,566,-917,22.9,3.3,-23.6,23.0,3.4,-23.2,5.73,2.31,-26.2,27.9
2012-04-12 00:40:00,0.0,1.9599,0.0010,403.29,0.47,126.1,36.6,138.11,28.33,24.61,36.35,0.04,-272.73,-272.74,-51,566,-917,22.9,3.3,-23.6,23.0,3.4,-23.2,5.73,2.29,-26.2,27.9
2012-04-12 00:41:00,0.0,1.9602,0.0012,403.25,0.45,140.3,37.9,138.10,28.34,24.61,36.35,0.04,-272.74,-272.73,-50,566,-917,22.9,3.2,-23.6,23.0,3.4,-23.2,5.73,2.31,-26.1,27.9
2012-04-12 00:42:00,0.0,1.9597,0.0009,403.29,0.42,140.5,37.4,138.10,28.36,24.61,36.34,0.04,-272.73,-272.73,-50,567,-917,23.0,3.3,-23.6,23.1,3.4,-23.2,5.73,2.35,-26.1,28.0
2012-04-12 00:43:00,0.0,1.9593,0.0013,403.16,0.44,145.4,36.4,138.10,28.37,24.62,36.35,0.04,-272.74,-272.74,-50,567,-918,23.0,3.3,-23.5,23.1,3.4,-23.1,5.73,2.38,-26.0,28.1
2012-04-12 00:44:00,0.0,1.9589,0.0010,403.09,0.49,143.1,37.0,138.10,28.38,24.61,36.36,0.04,-272.73,-272.73,-51,567,-917,23.0,3.3,-23.3,23.1,3.4,-22.9,5.73,2.36,-26.0,27.8
2012-04-12 00:45:00,0.0,1.9580,0.0010,403.10,0.40,150.9,39.6,138.10,28.39,24.62,36.35,0.04,-272.73,-272.73,-50,567,-918,23.1,3.3,-23.3,23.1,3.4,-22.9,5.73,2.23,-26.0,27.2
2012-04-12 00:46:00,0.0,1.9575,0.0010,402.98,0.42,138.9,40.4,138.11,28.40,24.61,36.35,0.04,-272.73,-272.74,-51,567,-918,23.0,3.3,-23.4,23.1,3.4,-23.0,5.73,2.45,-26.1,26.7
2012-04-12 00:47:00,0.0,1.9573,0.0011,403.08,0.48,132.8,35.5,138.12,28.40,24.62,36.35,0.04,-272.73,-272.73,-50,567,-918,23.0,3.3,-23.5,23.0,3.4,-23.0,5.73,2.23,-26.3,26.4
2012-04-12 00:48:00,0.0,1.9565,0.0010,403.05,0.47,103.3,36.4,138.12,28.39,24.62,36.35,0.04,-272.73,-272.73,-51,568,-918,23.0,3.3,-23.6,23.0,3.4,-23.2,5.73,2.40,-26.5,26.2
2012-04-12 00:49:00,0.0,1.9572,0.0010,403.12,0.51,117.0,36.8,138.13,28.38,24.61,36.34,0.04,-272.74,-272.74,-51,568,-918,22.9,3.2,-23.7,22.9,3.4,-23.3,5.73,2.38,-26.6,26.0
2012-04-12 00:50:00,0.0,1.9568,0.0009,403.04,0.41,95.0,43.6,138.13,28.37,24.62,36.35,0.04,-272.73,-272.74,-51,567,-918,22.9,3.3,-23.7,22.9,3.4,-23.3,5.73,2.24,-26.7,25.8
2012-04-12 00:51:00,0.0,1.9559,0.0011,402.92,0.37,77.1,31.9,138.14,28.35,24.61,36.35,0.04,-272.73,-272.74,-51,567,-918,22.8,3.3,-23.7,22.8,3.4,-23.3,5.73,2.40,-26.8,25.6
2012-04-12 00:52:00,0.0,1.9550,0.0009,402.84,0.39,70.3,34.1,138.14,28.33,24.62,36.34,0.04,-272.73,-272.74,-51,567,-918,22.8,3.3,-23.7,22.8,3.4,-23.4,5.73,2.41,-26.9,25.6
2012-04-12 00:53:00,0.0,1.9549,0.0012,402.77,0.47,71.1,36.1,138.14,28.30,24.61,36.34,0.04,-272.74,-272.74,-51,567,-918,22.8,3.2,-23.8,22.7,3.4,-23.4,5.73,2.25,-27.0,25.5
2012-04-12 00:54:00,0.0,1.9551,0.0010,402.67,0.44,49.4,37.1,138.15,28.28,24.62,36.33,0.04,-272.74,-272.74,-51,566,-918,22.7,3.2,-23.8,22.7,3.4,-23.4,5.73,2.35,-27.1,25.8
2012-04-12 00:55:00,0.0,1.9547,0.0011,402.63,0.44,51.0,39.5,138.14,28.26,24.61,36.34,0.04,-272.73,-272.74,-51,566,-918,22.7,3.3,-23.8,22.7,3.4,-23.4,5.73,2.37,-27.1,26.3
2012-04-12 00:56:00,0.0,1.9548,0.0010,402.62,0.44,66.6,36.9,138.14,28.24,24.61,36.34,0.04,-272.74,-272.74,-51,566,-918,22.7,3.3,-23.8,22.7,3.4,-23.4,5.73,2.36,-27.1,26.6
2012-04-12 00:57:00,0.0,1.9553,0.0011,402.72,0.44,73.6,33.0,138.14,28.24,24.61,36.34,0.04,-272.73,-272.74,-51,566,-917,22.7,3.2,-23.8,22.7,3.4,-23.4,5.73,2.26,-27.0,26.8
2012-04-12 00:58:00,0.0,1.9553,0.0012,402.76,0.43,77.1,40.9,138.13,28.23,24.61,36.34,0.04,-272.73,-272.73,-51,566,-918,22.7,3.3,-23.8,22.7,3.4,-23.4,5.73,2.35,-26.9,27.0
2012-04-12 00:59:00,0.0,1.9558,0.0012,402.87,0.47,75.5,41.8,138.13,28.23,24.61,36.34,0.04,-272.74,-272.74,-51,566,-917,22.7,3.2,-23.8,22.8,3.3,-23.4,5.73,2.40,-26.8,27.1
2012-04-12 01:00:00,0.0,1.9565,0.0011,402.84,0.39,97.2,40.7,138.12,28.23,24.61,36.34,0.04,-272.74,-272.73,-51,566,-917,22.7,3.2,-23.8,22.8,3.3,-23.4,5.73,2.35,-26.7,27.2
2012-04-12 01:01:00,0.0,1.9560,0.0010,402.84,0.53,105.3,39.0,138.12,28.23,24.61,36.34,0.04,-272.73,-272.74,-51,566,-917,22.8,3.3,-23.7,22.8,3.4,-23.3,5.73,2.29,-26.6,27.3
2012-04-12 01:02:00,0.0,1.9555,0.0010,403.01,0.45,103.9,36.6,138.12,28.24,24.62,36.35,0.04,-272.74,-272.74,-51,566,-918,22.8,3.3,-23.6,22.8,3.4,-23.2,5.73,2.29,-26.5,27.4
2012-04-12 01:03:00,0.0,1.9559,0.0011,402.88,0.36,110.7,36.9,138.12,28.25,24.61,36.34,0.04,-272.74,-272.74,-51,566,-917,22.8,3.3,-23.5,22.9,3.4,-23.1,5.73,2.34,-26.5,27.5
2012-04-12 01:04:00,0.0,1.9551,0.0008,402.97,0.48,110.3,42.4,138.12,28.26,24.62,36.35,0.04,-272.74,-272.74,-51,566,-917,22.8,3.3,-23.5,22.9,3.4,-23.1,5.73,2.38,-26.4,27.6
2012-04-12 01:05:00,0.0,1.9558,0.0012,402.97,0.46,122.1,33.3,138.11,28.27,24.61,36.35,0.04,-272.74,-272.74,-51,566,-917,22.9,3.3,-23.5,22.9,3.4,-23.1,5.73,2.37,-26.3,27.7
2012-04-12 01:06:00,0.0,1.9560,0.0011,403.12,0.46,128.7,40.5,138.11,28.28,24.61,36.35,0.04,-272.74,-272.74,-50,566,-917,22.9,3.3,-23.6,22.9,3.4,-23.2,5.73,2.32,-26.3,27.7
2012-04-12 01:07:00,0.0,1.9563,0.0011,403.06,0.41,130.4,30.9,138.11,28.30,24.61,36.35,0.04,-272.74,-272.74,-50,566,-917,22.9,3.2,-23.7,23.0,3.4,-23.3,5.73,2.29,-26.2,27.8
2012-04-12 01:08:00,0.0,1.9576,0.0016,403.21,0.48,132.4,39.9,138.11,28.31,24.61,36.35,0.04,-272.73,-272.73,-51,566,-917,22.9,3.2,-23.9,23.0,3.3,-23.4,5.73,2.29,-26.1,27.8
2012-04-12 01:09:00,0.0,1.9573,0.0014,403.19,0.39,136.2,35.3,138.11,28.33,24.61,36.35,0.04,-272.74,-272.73,-51,566,-917,22.9,3.2,-23.9,23.0,3.3,-23.5,5.73,2.34,-26.1,27.9
2012-04-12 01:10:00,0.0,1.9566,0.0010,403.36,0.36,142.0,37.0,138.10,28.34,24.61,36.34,0.04,-272.73,-272.74,-51,566,-917,23.0,3.1,-24.0,23.0,3.3,-23.5,5.73,2.37,-26.0,27.9
2012-04-12 01:11:00,0.0,1.9601,0.0035,403.29,0.48,150.7,44.6,138.10,28.35,24.62,36.35,0.04,-272.73,-272.73,-50,567,-917,23.0,3.1,-24.1,23.1,3.2,-23.7,5.73,2.37,-26.0,28.0
2012-04-12 01:12:00,0.0,1.9663,0.0012,403.63,0.38,135.8,35.7,138.10,28.37,24.61,36.34,0.04,-272.74,-272.74,-50,566,-917,23.0,3.0,-24.4,23.1,3.1,-24.0,5.73,2.33,-25.9,28.1
2012-04-12 01:13:00,0.0,1.9658,0.0016,403.63,0.39,157.9,37.9,138.10,28.38,24.61,36.35,0.04,-272.74,-272.74,-51,567,-917,23.1,3.0,-24.5,23.1,3.1,-24.1,5.73,2.29,-25.9,28.1
2012-04-12 01:14:00,0.0,1.9642,0.0008,403.50,0.42,150.8,35.1,138.10,28.40,24.61,36.35,0.04,-272.74,-272.73,-51,567,-917,23.1,3.0,-24.5,23.2,3.1,-24.1,5.73,2.28,-25.8,28.0
2012-04-12 01:15:00,0.0,1.9644,0.0012,403.54,0.40,156.5,33.3,138.10,28.41,24.61,36.35,0.04,-272.73,-272.73,-50,567,-917,23.1,2.9,-24.6,23.2,3.1,-24.1,5.73,2.38,-25.8,27.3
2012-04-12 01:16:00,0.0,1.9620,0.0014,403.67,0.34,157.7,38.4,138.11,28.42,24.62,36.34,0.04,-272.73,-272.74,-51,568,-918,23.1,3.0,-24.5,23.1,3.1,-24.1,5.73,2.32,-25.9,26.9
2012-04-12 01:17:00,0.0,1.9605,0.0009,403.41,0.44,133.7,40.3,138.11,28.42,24.62,36.35,0.04,-272.73,-272.74,-50,568,-918,23.1,3.0,-24.5,23.1,3.1,-24.1,5.73,2.38,-26.0,26.6
2012-04-12 01:18:00,0.0,1.9588,0.0012,403.40,0.43,134.1,34.2,138.12,28.42,24.62,36.35,0.04,-272.73,-272.73,-51,567,-918,23.1,3.0,-24.4,23.0,3.1,-24.0,5.73,2.25,-26.2,26.3
2012-04-12 01:19:00,0.0,1.9562,0.0011,403.21,0.41,118.5,44.2,138.12,28.41,24.62,36.35,0.04,-272.73,-272.74,-51,568,-918,23.0,3.0,-24.4,23.0,3.1,-24.0,5.73,2.45,-26.3,26.0
2012-04-12 01:20:00,0.0,1.9560,0.0009,403.16,0.39,109.6,33.6,138.12,28.40,24.62,36.35,0.04,-272.74,-272.74,-51,567,-918,23.0,3.0,-24.4,23.0,3.1,-24.0,5.73,2.30,-26.4,25.8
2012-04-12 01:21:00,0.0,1.9561,0.0010,403.10,0.41,100.7,38.6,138.13,28.39,24.62,36.35,0.04,-272.74,-272.74,-51,567,-918,22.9,3.0,-24.4,22.9,3.1,-24.0,5.73,2.27,-26.5,25.8
2012-04-12 01:22:00,0.0,1.9562,0.0010,403.11,0.45,89.5,39.2,138.13,28.37,24.62,36.35,0.04,-272.74,-272.74,-52,567,-918,22.9,3.0,-24.5,22.9,3.1,-24.1,5.73,2.44,-26.7,25.7
2012-04-12 01:23:00,0.0,1.9555,0.0009,403.03,0.45,70.1,36.9,138.14,28.35,24.62,36.35,0.04,-272.74,-272.73,-51,567,-918,22.9,3.0,-24.6,22.8,3.1,-24.2,5.73,2.34,-26.8,25.5
2012-04-12 01:24:00,0.0,1.9551,0.0011,402.93,0.44,65.4,35.9,138.14,28.33,24.62,36.34,0.04,-272.73,-272.73,-51,567,-918,22.8,3.0,-24.6,22.8,3.1,-24.3,5.73,2.24,-26.8,25.4
2012-04-12 01:25:00,0.0,1.9552,0.0010,402.91,0.43,69.3,31.7,138.14,28.31,24.61,36.34,0.04,-272.73,-272.73,-51,566,-918,22.8,3.0,-24.7,22.7,3.1,-24.4,5.73,2.44,-26.9,25.9
2012-04-12 01:26:00,0.0,1.9542,0.0010,402.74,0.47,64.2,30.9,138.14,28.29,24.62,36.35,0.04,-272.73,-272.74,-52,567,-918,22.8,3.0,-24.7,22.7,3.1,-24.4,5.73,2.24,-26.8,26.3
2012-04-12 01:27:00,0.0,1.9540,0.0010,402.83,0.45,74.8,41.0,138.14,28.28,24.61,36.34,0.04,-272.73,-272.74,-51,566,-918,22.8,3.0,-24.7,22.7,3.1,-24.4,5.73,2.42,-26.8,26.7
2012-04-12 01:28:00,0.0,1.9537,0.0010,402.92,0.41,83.0,38.1,138.13,28.27,24.61,36.35,0.04,-272.73,-272.73,-51,567,-918,22.8,2.9,-24.8,22.8,3.1,-24.4,5.73,2.34,-26.7,26.9
2012-04-12 01:29:00,0.0,1.9545,0.0011,402.79,0.47,84.8,34.7,138.13,28.27,24.61,36.34,0.04,-272.74,-272.74,-51,566,-917,22.8,2.9,-24.8,22.8,3.0,-24.4,5.73,2.27,-26.6,27.1
2012-04-12 01:30:00,0.0,1.9546,0.0010,402.78,0.36,96.4,35.7,138.12,28.27,24.61,36.35,0.04,-272.74,-272.74,-51,566,-917,22.9,3.0,-24.8,22.9,3.1,-24.3,5.73,2.31,-26.6,27.2
2012-04-12 01:31:00,0.0,1.9557,0.0010,402.76,0.49,102.4,36.5,138.12,28.27,24.61,36.35,0.04,-272.73,-272.73,-51,566,-917,22.9,2.9,-24.8,22.9,3.0,-24.4,5.73,2.37,-26.4,27.3
2012-04-12 01:32:00,0.0,1.9553,0.0010,402.85,0.42,106.5,39.5,138.12,28.28,24.62,36.35,0.04,-272.73,-272.74,-51,566,-917,22.9,2.9,-24.8,22.9,3.1,-24.3,5.73,2.38,-26.3,27.4
2012-04-12 01:33:00,0.0,1.9555,0.0010,402.78,0.46,123.1,36.3,138.12,28.29,24.61,36.35,0.04,-272.74,-272.74,-51,566,-917,22.9,3.0,-24.7,22.9,3.1,-24.3,5.73,2.35,-26.3,27.5
2012-04-12 01:34:00,0.0,1.9564,0.0010,402.82,0.42,119.1,35.5,138.11,28.30,24.61,36.35,0.04,-272.73,-272.74,-51,566,-917,22.9,3.0,-24.7,22.9,3.1,-24.3,5.73,2.30,-26.2,27.6
2012-04-12 01:35:00,0.0,1.9562,0.0009,402.83,0.38,130.3,34.4,138.11,28.31,24.62,36.35,0.04,-272.73,-272.73,-51,567,-917,22.9,3.0,-24.6,23.0,3.1,-24.2,5.73,2.29,-26.1,27.7
2012-04-12 01:36:00,0.0,1.9570,0.0009,402.98,0.43,137.3,31.6,138.11,28.32,24.61,36.35,0.04,-272.74,-272.74,-51,567,-917,23.0,3.0,-24.5,23.0,3.1,-24.1,5.73,2.32,-26.1,27.8
2012-04-12 01:37:00,0.0,1.9569,0.0011,403.13,0.38,140.9,41.5,138.11,28.34,24.61,36.35,0.04,-272.74,-272.73,-51,566,-917,23.0,3.0,-24.5,23.0,3.1,-24.0,5.73,2.36,-26.0,27.8
2012-04-12 01:38:00,0.0,1.9573,0.0009,402.99,0.47,141.6,38.0,138.10,28.35,24.61,36.35,0.04,-272.73,-272.74,-51,567,-917,23.0,3.0,-24.5,23.1,3.1,-24.0,5.73,2.38,-25.9,27.9
2012-04-12 01:39:00,0.0,1.9584,0.0010,403.08,0.44,143.1,29.3,138.10,28.37,24.61,36.36,0.04,-272.74,-272.74,-51,567,-917,23.1,3.0,-24.5,23.1,3.1,-24.1,5.73,2.35,-25.9,27.9
2012-04-12 01:40:00,0.0,1.9585,0.0011,403.14,0.46,157.9,33.7,138.10,28.38,24.61,36.35,0.04,-272.74,-272.74,-51,567,-917,23.1,3.0,-24.5,23.1,3.1,-24.1,5.73,2.31,-25.8,28.0
2012-04-12 01:41:00,0.0,1.9588,0.0009,403.29,0.42,153.2,35.5,138.10,28.40,24.61,36.35,0.04,-272.74,-272.74,-51,567,-917,23.1,2.9,-24.6,23.2,3.1,-24.2,5.73,2.28,-25.8,28.0
2012-04-12 01:42:00,0.0,1.9597,0.0023,403.23,0.47,156.7,43.7,138.10,28.41,24.61,36.34,0.04,-272.73,-272.74,-51,567,-917,23.1,2.9,-24.8,23.2,3.0,-24.3,5.73,2.31,-25.7,28.1
2012-04-12 01:43:00,0.0,1.9654,0.0039,403.37,0.46,157.6,39.4,138.10,28.43,24.61,36.35,0.04,-272.73,-272.74,-51,567,-917,23.2,2.8,-25.0,23.2,2.9,-24.6,5.73,2.36,-25.7,28.0
2012-04-12 01:44:00,0.0,1.9605,0.0011,403.23,0.43,155.9,37.3,138.10,28.44,24.61,36.35,0.04,-272.74,-272.74,-50,567,-918,23.2,2.9,-24.8,23.2,3.0,-24.4,5.73,2.40,-25.7,27.4
2012-04-12 01:45:00,0.0,1.9635,0.0015,403.28,0.37,156.8,33.2,138.11,28.45,24.61,36.35,0.04,-272.74,-272.73,-51,568,-918,23.2,2.9,-24.9,23.2,3.0,-24.5,5.73,2.23,-25.8,26.9
2012-04-12 01:46:00,0.0,1.9630,0.0017,403.46,0.40,147.4,30.5,138.11,28.45,24.62,36.34,0.04,-272.73,-272.74,-51,568,-918,23.2,2.8,-25.1,23.2,2.9,-24.6,5.73,2.44,-25.9,26.7
2012-04-12 01:47:00,0.0,1.9643,0.0015,403.40,0.36,136.2,40.7,138.11,28.45,24.61,36.36,0.04,-272.74,-272.74,-51,568,-918,23.1,2.8,-25.3,23.1,2.9,-24.9,5.73,2.27,-26.0,26.4
2012-04-12 01:48:00,0.0,1.9597,0.0012,403.12,0.49,129.2,34.8,138.12,28.44,24.62,36.34,0.04,-272.74,-272.73,-51,568,-918,23.1,2.8,-25.2,23.1,2.9,-24.8,5.73,2.33,-26.2,26.1
2012-04-12 01:49:00,0.0,1.9599,0.0012,403.09,0.38,114.2,31.5,138.12,28.43,24.61,36.35,0.04,-272.74,-272.74,-51,568,-918,23.1,2.8,-25.1,23.0,2.9,-24.8,5.73,2.43,-26.3,26.1
2012-04-12 01:50:00,0.0,1.9612,0.0018,403.17,0.43,108.3,33.1,138.13,28.42,24.61,36.34,0.04,-272.74,-272.74,-51,568,-918,23.0,2.8,-25.3,23.0,2.9,-24.9,5.73,2.23,-26.4,25.8
2012-04-12 01:51:00,0.0,1.9588,0.0016,402.79,0.45,99.2,36.7,138.13,28.40,24.61,36.36,0.04,-272.73,-272.73,-51,568,-918,23.0,2.8,-25.3,22.9,2.9,-24.9,5.73,2.37,-26.5,25.7
2012-04-12 01:52:00,0.0,1.9567,0.0011,402.77,0.44,98.0,41.2,138.14,28.39,24.61,36.35,0.04,-272.73,-272.74,-51,568,-918,23.0,2.8,-25.3,22.9,2.9,-24.9,5.73,2.42,-26.6,25.6
2012-04-12 01:53:00,0.0,1.9558,0.0011,402.79,0.45,84.6,35.7,138.14,28.37,24.61,36.34,0.04,-272.74,-272.74,-51,567,-918,22.9,2.8,-25.4,22.8,2.9,-25.0,5.73,2.23,-26.7,25.5
2012-04-12 01:54:00,0.0,1.9569,0.0013,402.70,0.48,75.6,41.2,138.14,28.35,24.62,36.35,0.04,-272.74,-272.74,-52,567,-918,22.9,2.8,-25.4,22.8,2.9,-25.0,5.73,2.38,-26.7,25.9
2012-04-12 01:55:00,0.0,1.9556,0.0010,402.65,0.43,78.8,38.2,138.14,28.33,24.62,36.35,0.04,-272.74,-272.73,-51,567,-918,22.9,2.8,-25.3,22.8,2.9,-25.0,5.73,2.32,-26.7,26.4
2012-04-12 01:56:00,0.0,1.9556,0.0010,402.79,0.40,74.9,37.1,138.14,28.31,24.61,36.34,0.04,-272.74,-272.74,-52,567,-918,22.9,2.8,-25.3,22.8,2.9,-24.9,5.73,2.41,-26.7,26.7
2012-04-12 01:57:00,0.0,1.9549,0.0012,402.72,0.47,87.4,35.3,138.13,28.31,24.61,36.35,0.04,-272.73,-272.74,-51,567,-917,22.9,2.8,-25.2,22.9,2.9,-24.9,5.73,2.28,-26.6,26.9
2012-04-12 01:58:00,0.0,1.9556,0.0011,402.94,0.42,90.5,31.8,138.13,28.30,24.61,36.34,0.04,-272.74,-272.74,-51,567,-917,22.9,2.8,-25.2,22.9,2.9,-24.9,5.73,2.29,-26.5,27.1
2012-04-12 01:59:00,0.0,1.9554,0.0009,402.86,0.46,93.5,37.1,138.12,28.30,24.62,36.35,0.04,-272.73,-272.74,-51,567,-917,22.9,2.8,-25.2,22.9,2.9,-24.8,5.73,2.36,-26.4,27.3
2012-04-12 02:00:00,0.0,1.9570,0.0010,403.00,0.41,104.2,32.8,138.12,28.31,24.61,36.35,0.04,-272.74,-272.74,-51,566,-917,23.0,2.8,-25.2,23.0,2.9,-24.8,5.73,2.38,-26.3,27.4
2012-04-12 02:01:00,0.0,1.9565,0.0008,402.90,0.45,124.4,38.1,138.12,28.32,24.61,36.35,0.04,-272.74,-272.74,-51,567,-917,23.0,2.8,-25.2,23.0,2.9,-24.8,5.73,2.35,-26.2,27.5
2012-04-12 02:02:00,0.0,1.9564,0.0010,402.93,0.46,122.3,35.8,138.11,28.33,24.61,36.35,0.04,-272.73,-272.73,-51,567,-917,23.0,2.8,-25.3,23.0,2.9,-24.9,5.73,2.30,-26.2,27.6
2012-04-12 02:03:00,0.0,1.9567,0.0009,402.91,0.47,133.3,35.9,138.11,28.34,24.61,36.35,0.04,-272.74,-272.74,-51,567,-917,23.0,2.8,-25.3,23.0,2.9,-24.9,5.73,2.29,-26.1,27.7
2012-04-12 02:04:00,0.0,1.9564,0.0010,403.12,0.36,138.4,35.9,138.11,28.36,24.61,36.35,0.04,-272.73,-272.74,-51,567,-917,23.1,2.8,-25.4,23.1,2.9,-24.9,5.73,2.31,-26.0,27.8
2012-04-12 02:05:00,0.0,1.9569,0.0010,403.18,0.44,138.2,30.3,138.11,28.37,24.62,36.34,0.04,-272.73,-272.74,-51,567,-917,23.1,2.8,-25.4,23.1,2.9,-24.9,5.73,2.35,-26.0,27.8
2012-04-12 02:06:00,0.0,1.9585,0.0011,403.34,0.41,146.2,32.3,138.10,28.39,24.62,36.35,0.04,-272.73,-272.74,-51,567,-917,23.1,2.8,-25.3,23.1,2.9,-24.9,5.73,2.37,-25.9,27.9
2012-04-12 02:07:00,0.0,1.9617,0.0023,403.57,0.40,148.9,31.7,138.10,28.40,24.61,36.34,0.04,-272.74,-272.74,-51,567,-917,23.2,2.7,-25.4,23.2,2.8,-25.0,5.73,2.36,-25.9,28.0
2012-04-12 02:08:00,0.0,1.9596,0.0011,403.36,0.41,153.8,37.5,138.10,28.41,24.62,36.34,0.04,-272.74,-272.74,-51,567,-917,23.2,2.8,-25.3,23.2,2.8,-24.9,5.73,2.32,-25.8,28.0
2012-04-12 02:09:00,0.0,1.9617,0.0026,403.35,0.44,153.8,35.4,138.10,28.43,24.62,36.35,0.04,-272.73,-272.74,-51,567,-917,23.2,2.8,-25.3,23.2,2.8,-24.9,5.73,2.29,-25.8,28.1
2012-04-12 02:10:00,0.0,1.9614,0.0012,403.44,0.47,157.6,33.5,138.10,28.45,24.62,36.35,0.04,-272.74,-272.74,-51,567,-917,23.3,2.7,-25.3,23.3,2.8,-24.9,5.73,2.29,-25.7,28.1
2012-04-12 02:11:00,0.0,1.9664,0.0018,403.43,0.48,159.3,35.1,138.10,28.47,24.62,36.35,0.04,-272.74,-272.74,-51,567,-917,23.3,2.7,-25.4,23.3,2.8,-24.9,5.73,2.34,-25.7,28.0
2012-04-12 02:12:00,0.0,1.9668,0.0013,403.55,0.44,159.2,32.0,138.10,28.48,24.62,36.35,0.04,-272.73,-272.73,-51,568,-918,23.3,2.7,-25.4,23.3,2.8,-25.0,5.73,2.41,-25.7,27.3
2012-04-12 02:13:00,0.0,1.9606,0.0014,403.50,0.43,159.8,35.0,138.10,28.49,24.62,36.34,0.04,-272.74,-272.74,-51,568,-918,23.3,2.7,-25.3,23.3,2.8,-24.9,5.73,2.23,-25.8,27.0
2012-04-12 02:14:00,0.0,1.9629,0.0010,403.56,0.38,154.2,31.8,138.11,28.49,24.62,36.34,0.04,-272.74,-272.74,-52,568,-918,23.3,2.8,-25.2,23.2,2.9,-24.8,5.73,2.45,-25.9,26.6
2012-04-12 02:15:00,0.0,1.9633,0.0012,403.51,0.41,145.2,36.1,138.11,28.49,24.62,36.35,0.04,-272.74,-272.74,-51,568,-918,23.2,2.7,-25.4,23.2,2.8,-25.0,5.73,2.25,-26.0,26.4
2012-04-12 02:16:00,0.0,1.9630,0.0012,403.59,0.46,128.8,40.0,138.12,28.48,24.62,36.34,0.04,-272.73,-272.74,-51,568,-918,23.2,2.7,-25.4,23.2,2.8,-25.0,5.73,2.37,-26.1,26.2
2012-04-12 02:17:00,0.0,1.9613,0.0023,403.43,0.53,130.1,34.1,138.12,28.47,24.61,36.34,0.04,-272.74,-272.74,-52,568,-918,23.2,2.7,-25.4,23.1,2.8,-25.0,5.73,2.39,-26.2,26.1